When you browse on this site, cookies collect data to enhance your experience and personalize the content and advertising you see.
Visit our Privacy Policy to learn more. By continuing to use the site, you agree to this use of cookies and data.
  • In Hungary
  • List of Countries
  • For 7 days
  • Water Temperature
  • Satellite Maps
  • Weather Map
  • News
  • Weather Widgets
  • user-avatar
    Login

    Hourly Weather Maringa

    Today, 23 January, Wednesday

    Time Temperature Precipitation Wind Pressure Humidity
    00:00 +26°C° 0 mm 1 mps 713 mmHg 81%
    01:00 +26°C° 0 mm 1 mps 713 mmHg 82%
    02:00 +26°C° 0 mm 2 mps 713 mmHg 83%
    03:00 +25°C° 0 mm 2 mps 713 mmHg 84%
    04:00 +25°C° 0 mm 2 mps 713 mmHg 86%
    05:00 +24°C° 0 mm 2 mps 713 mmHg 88%
    06:00 +24°C° 0 mm 3 mps 713 mmHg 90%
    07:00 +26°C° 0 mm 2 mps 714 mmHg 86%
    08:00 +27°C° 0 mm 2 mps 714 mmHg 82%
    09:00 +29°C° 0 mm 2 mps 715 mmHg 77%
    10:00 +31°C° 0 mm 2 mps 715 mmHg 71%
    11:00 +32°C° 0 mm 1 mps 715 mmHg 64%
    12:00 +34°C° 0 mm 1 mps 715 mmHg 57%
    13:00 +34°C° 0.7 mm 1 mps 715 mmHg 60%
    14:00 +33°C° 0.7 mm 1 mps 714 mmHg 62%
    15:00 +34°C° 0.7 mm 2 mps 714 mmHg 65%
    16:00 +32°C° 0 mm 2 mps 713 mmHg 68%
    17:00 +31°C° 0 mm 2 mps 713 mmHg 72%
    18:00 +31°C° 0 mm 2 mps 712 mmHg 75%
    19:00 +29°C° 0 mm 2 mps 712 mmHg 76%
    20:00 +28°C° 0 mm 2 mps 712 mmHg 77%
    21:00 +27°C° 0 mm 1 mps 712 mmHg 78%
    22:00 +26°C° 0 mm 2 mps 713 mmHg 79%
    23:00 +26°C° 0 mm 2 mps 713 mmHg 80%

    Tomorrow, 24 January, Thursday

    Time Temperature Precipitation Wind Pressure Humidity
    00:00 +26°C° 0 mm 2 mps 713 mmHg 81%
    01:00 +25°C° 0 mm 2 mps 713 mmHg 81%
    02:00 +25°C° 0 mm 2 mps 712 mmHg 82%
    03:00 +24°C° 0 mm 2 mps 712 mmHg 83%
    04:00 +24°C° 0 mm 2 mps 712 mmHg 85%
    05:00 +24°C° 0 mm 2 mps 712 mmHg 86%
    06:00 +23°C° 0 mm 2 mps 712 mmHg 87%
    07:00 +25°C° 0 mm 3 mps 713 mmHg 84%
    08:00 +27°C° 0 mm 3 mps 713 mmHg 80%
    09:00 +28°C° 0 mm 4 mps 714 mmHg 76%
    10:00 +30°C° 0 mm 3 mps 714 mmHg 71%
    11:00 +31°C° 0 mm 3 mps 714 mmHg 65%
    12:00 +34°C° 0 mm 3 mps 714 mmHg 60%
    13:00 +34°C° 0.4 mm 3 mps 714 mmHg 60%
    14:00 +34°C° 0.4 mm 3 mps 713 mmHg 59%
    15:00 +35°C° 0.4 mm 3 mps 713 mmHg 59%
    16:00 +34°C° 0.2 mm 3 mps 712 mmHg 63%
    17:00 +32°C° 0.2 mm 2 mps 712 mmHg 67%
    18:00 +31°C° 0.2 mm 2 mps 712 mmHg 70%
    19:00 +30°C° 0.1 mm 3 mps 712 mmHg 75%
    20:00 +28°C° 0.1 mm 3 mps 712 mmHg 79%
    21:00 +26°C° 0.1 mm 3 mps 712 mmHg 84%
    22:00 +26°C° 0 mm 3 mps 712 mmHg 84%
    23:00 +26°C° 0 mm 3 mps 713 mmHg 85%

    Day after tomorrow, 25 January, Friday

    Time Temperature Precipitation Wind Pressure Humidity
    00:00 +25°C° 0 mm 3 mps 714 mmHg 86%
    01:00 +25°C° 0.4 mm 3 mps 713 mmHg 86%
    02:00 +23°C° 0.4 mm 4 mps 713 mmHg 86%
    03:00 +22°C° 0.4 mm 4 mps 712 mmHg 85%
    04:00 +22°C° 0 mm 4 mps 712 mmHg 84%
    05:00 +22°C° 0 mm 4 mps 712 mmHg 83%
    06:00 +21°C° 0 mm 4 mps 712 mmHg 82%
    07:00 +22°C° 0 mm 5 mps 713 mmHg 78%
    08:00 +25°C° 0 mm 5 mps 713 mmHg 74%
    09:00 +26°C° 0 mm 5 mps 714 mmHg 70%
    10:00 +28°C° 0 mm 5 mps 714 mmHg 66%
    11:00 +29°C° 0 mm 4 mps 714 mmHg 62%
    12:00 +32°C° 0 mm 4 mps 714 mmHg 58%
    13:00 +31°C° 0.1 mm 3 mps 714 mmHg 59%
    14:00 +33°C° 0.1 mm 3 mps 713 mmHg 59%
    15:00 +32°C° 0.1 mm 2 mps 712 mmHg 59%
    16:00 +31°C° 0.5 mm 3 mps 712 mmHg 64%
    17:00 +30°C° 0.5 mm 3 mps 712 mmHg 69%
    18:00 +30°C° 0.5 mm 3 mps 711 mmHg 73%
    19:00 +28°C° 0.2 mm 3 mps 712 mmHg 77%
    20:00 +26°C° 0.2 mm 3 mps 712 mmHg 81%
    21:00 +24°C° 0.2 mm 3 mps 712 mmHg 84%
    22:00 +24°C° 0 mm 3 mps 712 mmHg 84%
    23:00 +23°C° 0 mm 4 mps 712 mmHg 83%

    26 January, Saturday

    Time Temperature Precipitation Wind Pressure Humidity
    00:00 +22°C° 0 mm 4 mps 713 mmHg 83%
    01:00 +22°C° 0 mm 4 mps 712 mmHg 83%
    02:00 +22°C° 0 mm 5 mps 712 mmHg 82%
    03:00 +22°C° 0 mm 5 mps 712 mmHg 82%
    04:00 +21°C° 0 mm 5 mps 712 mmHg 83%
    05:00 +21°C° 0 mm 5 mps 712 mmHg 83%
    06:00 +20°C° 0 mm 4 mps 712 mmHg 83%
    07:00 +22°C° 0 mm 4 mps 713 mmHg 80%
    08:00 +23°C° 0 mm 4 mps 713 mmHg 78%
    09:00 +25°C° 0 mm 4 mps 714 mmHg 76%
    10:00 +27°C° 0 mm 4 mps 714 mmHg 71%
    11:00 +28°C° 0 mm 4 mps 714 mmHg 67%
    12:00 +30°C° 0 mm 4 mps 714 mmHg 63%
    13:00 +30°C° 0 mm 4 mps 713 mmHg 61%
    14:00 +32°C° 0 mm 4 mps 713 mmHg 59%
    15:00 +33°C° 0 mm 4 mps 712 mmHg 57%
    16:00 +30°C° 0.3 mm 4 mps 712 mmHg 63%
    17:00 +29°C° 0.3 mm 4 mps 712 mmHg 69%
    18:00 +28°C° 0.3 mm 4 mps 712 mmHg 75%
    19:00 +26°C° 0.1 mm 4 mps 712 mmHg 79%
    20:00 +25°C° 0.1 mm 4 mps 712 mmHg 83%
    21:00 +22°C° 0.1 mm 4 mps 713 mmHg 87%
    22:00 +22°C° 0 mm 4 mps 713 mmHg 86%
    23:00 +22°C° 0 mm 4 mps 713 mmHg 86%

    27 January, Sunday

    Time Temperature Precipitation Wind Pressure Humidity
    00:00 +21°C° 0 mm 4 mps 713 mmHg 86%
    01:00 +21°C° 0 mm 4 mps 713 mmHg 86%
    02:00 +21°C° 0 mm 4 mps 712 mmHg 86%
    03:00 +21°C° 0 mm 4 mps 712 mmHg 87%
    04:00 +21°C° 0 mm 4 mps 712 mmHg 86%
    05:00 +20°C° 0 mm 4 mps 712 mmHg 85%
    06:00 +20°C° 0 mm 5 mps 712 mmHg 85%
    07:00 +22°C° 0 mm 5 mps 713 mmHg 81%
    08:00 +23°C° 0 mm 5 mps 714 mmHg 77%
    09:00 +24°C° 0 mm 6 mps 714 mmHg 74%
    10:00 +26°C° 0.5 mm 5 mps 715 mmHg 72%
    11:00 +27°C° 0.5 mm 5 mps 715 mmHg 71%
    12:00 +28°C° 0.5 mm 5 mps 715 mmHg 70%
    13:00 +28°C° 1.1 mm 5 mps 714 mmHg 69%
    14:00 +29°C° 1.1 mm 5 mps 714 mmHg 69%
    15:00 +29°C° 1.1 mm 5 mps 714 mmHg 69%
    16:00 +28°C° 0.2 mm 4 mps 713 mmHg 70%
    17:00 +28°C° 0.2 mm 4 mps 713 mmHg 71%
    18:00 +28°C° 0.2 mm 3 mps 713 mmHg 73%
    19:00 +26°C° 0.3 mm 4 mps 713 mmHg 78%
    20:00 +25°C° 0.3 mm 4 mps 713 mmHg 83%
    21:00 +22°C° 0.3 mm 4 mps 714 mmHg 88%
    22:00 +22°C° 0 mm 4 mps 714 mmHg 87%
    23:00 +21°C° 0 mm 4 mps 714 mmHg 87%

    28 January, Monday

    Time Temperature Precipitation Wind Pressure Humidity
    00:00 +21°C° 0 mm 4 mps 714 mmHg 87%
    01:00 +21°C° 0 mm 4 mps 714 mmHg 87%
    02:00 +21°C° 0 mm 4 mps 714 mmHg 86%
    03:00 +21°C° 0 mm 4 mps 713 mmHg 85%
    04:00 +21°C° 0 mm 4 mps 714 mmHg 86%
    05:00 +21°C° 0 mm 4 mps 714 mmHg 87%
    06:00 +20°C° 0 mm 4 mps 714 mmHg 87%
    07:00 +22°C° 0 mm 4 mps 715 mmHg 82%
    08:00 +25°C° 0 mm 5 mps 715 mmHg 77%
    09:00 +26°C° 0 mm 6 mps 716 mmHg 72%
    10:00 +27°C° 0 mm 6 mps 716 mmHg 68%
    11:00 +29°C° 0 mm 6 mps 716 mmHg 64%
    12:00 +30°C° 0 mm 6 mps 716 mmHg 60%
    13:00 +30°C° 0.1 mm 6 mps 716 mmHg 59%
    14:00 +32°C° 0.1 mm 6 mps 715 mmHg 58%
    15:00 +32°C° 0.1 mm 6 mps 715 mmHg 57%
    16:00 +30°C° 0.2 mm 5 mps 714 mmHg 61%
    17:00 +30°C° 0.2 mm 4 mps 714 mmHg 66%
    18:00 +29°C° 0.2 mm 3 mps 714 mmHg 70%
    19:00 +27°C° 0 mm 3 mps 714 mmHg 74%
    20:00 +26°C° 0 mm 2 mps 715 mmHg 78%
    21:00 +24°C° 0 mm 2 mps 715 mmHg 81%
    22:00 +24°C° 0 mm 2 mps 715 mmHg 83%
    23:00 +23°C° 0 mm 2 mps 715 mmHg 85%
    Show more